Flag for Romania Weather past 2 weeks in Timișoara, Romania

Now
45 °F

Passing clouds.


Feels Like: 38 °F
Forecast: 29 / 40 °F
Wind: 15 mph from Northwest

Location: Timisoara Airport

Current Time: Dec 21, 2014 at 3:16:47 PM

Latest Report: Dec 21, 2014 at 2:30 PM


Visibility: N/A

Pressure: 30.27 "Hg

Humidity: 66%

Dew point: 34 °F

Location of TimișoaraLocation

Historic Weather in Timișoara — Graph

°F

Timișoara temperature yesterday

Maximum temperature yesterday: 54 °F (at 2:00 PM)
Minimum temperature yesterday: 32 °F (at 8:30 PM)
Average temperature yesterday: 39 °F

Past Weeks' High & Low Weather Summary

 TemperatureHumidityPressure
High54 °F (Dec 20, 2:00 PM)100% (Dec 6, 6:30 PM)30.24 "Hg (Dec 6, 6:30 PM)
Low28 °F (Dec 12, 5:00 AM)58% (Dec 13, 2:30 PM)29.80 "Hg (Dec 17, 4:00 AM)
Average40 °F93%30.08 "Hg
* Reported Dec 6 2:00 PM — Dec 21 2:00 PM, Timișoara, Weather by CustomWeather, © 2014

Note: Actual official high and low records may vary slightly from our data, if they occured in-between our weather recording intervals... More about our weather records

Advertising

Timișoara weather history for previous 24 hours

 ConditionsComfort  
Time TempWeatherWind HumidityBarometerVisibility
2:00 PM
Dec 21
45 °FPassing clouds.18 mph66%30.24 "HgN/A
1:30 PM45 °FPassing clouds.20 mph66%30.24 "HgN/A
1:00 PM45 °FPassing clouds.17 mph71%30.24 "HgN/A
12:30 PM45 °FPassing clouds.17 mph71%30.24 "HgN/A
12:00 PM45 °FSunny.16 mph76%30.24 "Hg10 mi
11:30 AM43 °FSunny.16 mph81%30.24 "Hg10 mi
11:00 AM43 °FPassing clouds.14 mph81%30.24 "HgN/A
10:30 AM41 °FPassing clouds.16 mph87%30.21 "HgN/A
10:00 AM39 °FPassing clouds.15 mph87%30.21 "HgN/A
9:30 AM37 °FScattered clouds.15 mph93%30.18 "HgN/A
9:00 AM37 °FSunny.13 mph93%30.18 "Hg10 mi
8:30 AM36 °FPassing clouds.8 mph100%30.15 "HgN/A
8:00 AM34 °FPassing clouds.6 mph100%30.15 "HgN/A
7:30 AM34 °FPassing clouds.3 mph100%30.15 "HgN/A
7:00 AM34 °FPassing clouds.5 mph100%30.15 "HgN/A
6:30 AM34 °FClear.2 mph100%30.12 "Hg10 mi
6:00 AM34 °FClear.No wind100%30.09 "Hg10 mi
5:30 AM34 °FClear.5 mph100%30.09 "Hg10 mi
5:00 AM34 °FPassing clouds.3 mph100%30.09 "HgN/A
4:30 AM34 °FPassing clouds.6 mph100%30.07 "HgN/A
4:00 AM34 °FPassing clouds.5 mph100%30.09 "HgN/A
3:30 AM34 °FSprinkles. Passing clouds.10 mph100%30.09 "Hg5 mi
3:00 AM36 °FSnowstorm. Partly cloudy.16 mph93%30.12 "Hg2 mi
2:30 AM37 °FThunderstorms. Fog.20 mph93%30.12 "Hg2 mi
2:00 AM41 °FHail. Passing clouds.14 mph81%30.09 "Hg3 mi
1:30 AM36 °FThunderstorms. Passing clouds.6 mph100%29.98 "HgN/A
1:00 AM34 °FThunderstorms. Passing clouds.5 mph100%30.01 "HgN/A
12:30 AM32 °FClear.5 mph100%30.04 "Hg10 mi
12:00 AM34 °FClear.6 mph100%30.07 "Hg10 mi
11:30 PM
Dec 20
32 °FClear.7 mph100%30.07 "Hg10 mi
10:30 PM32 °FClear.1 mph100%30.12 "Hg10 mi
10:00 PM32 °FClear.5 mph100%30.09 "Hg10 mi
9:30 PM32 °FPassing clouds.3 mph100%30.12 "HgN/A
9:00 PM32 °FClear.3 mph93%30.12 "Hg10 mi
8:30 PM32 °FClear.2 mph100%30.12 "Hg10 mi
8:00 PM34 °FClear.6 mph93%30.12 "Hg10 mi
7:30 PM37 °FClear.2 mph87%30.15 "Hg10 mi
7:00 PM39 °FClear.3 mph81%30.15 "Hg10 mi
6:30 PM39 °FClear.7 mph81%30.15 "Hg10 mi
6:00 PM41 °FClear.6 mph81%30.15 "Hg10 mi
5:30 PM41 °FClear.3 mph81%30.15 "Hg10 mi
5:00 PM45 °FPassing clouds.7 mph71%30.15 "HgN/A
4:30 PM46 °FPassing clouds.5 mph71%30.15 "HgN/A
4:00 PM50 °FPassing clouds.10 mph58%30.15 "HgN/A
3:30 PM50 °FPassing clouds.12 mph67%30.15 "HgN/A
3:00 PM52 °FPassing clouds.10 mph62%30.15 "HgN/A
Weather by CustomWeather, © 2014

See weather overviewHow to use our weather pages